Precipitable_Water
0.92 0.94 0.95 0.97 1.00 1.03 1.04 1.06 1.12 1.16 1.21 1.26 1.27 1.30 1.33 1.39 1.42 1.41 1.37 1.36 1.39 1.43 1.43 1.40 1.37 1.35 1.35 1.32 1.29 1.28 1.30 1.33 1.35 1.33 1.32 1.33 1.32 1.34 1.41 1.56 1.55 1.40
0.94 0.97 0.99 1.01 1.00 1.04 1.09 1.12 1.14 1.17 1.19 1.22 1.26 1.31 1.38 1.42 1.48 1.51 1.48 1.45 1.46 1.48 1.49 1.44 1.38 1.36 1.33 1.30 1.29 1.33 1.37 1.42 1.42 1.48 1.46 1.44 1.35 1.38 1.50 1.60 1.57 1.59
0.96 0.97 0.97 0.96 0.97 0.99 1.04 1.11 1.14 1.16 1.16 1.20 1.25 1.28 1.31 1.38 1.42 1.48 1.50 1.51 1.50 1.51 1.52 1.49 1.44 1.40 1.40 1.41 1.43 1.42 1.43 1.40 1.38 1.48 1.54 1.51 1.44 1.37 1.41 1.52 1.54 1.53
0.94 0.96 0.96 0.98 1.00 1.01 1.05 1.06 1.09 1.12 1.15 1.16 1.19 1.25 1.28 1.29 1.30 1.28 1.30 1.33 1.34 1.38 1.45 1.46 1.45 1.44 1.42 1.41 1.40 1.40 1.44 1.48 1.47 1.49 1.50 1.49 1.44 1.38 1.39 1.46 1.47 1.46
0.90 0.93 0.96 0.98 1.00 1.03 1.05 1.05 1.05 1.08 1.11 1.15 1.18 1.21 1.23 1.25 1.26 1.27 1.30 1.34 1.36 1.33 1.33 1.33 1.35 1.36 1.39 1.42 1.44 1.41 1.44 1.47 1.51 1.50 1.49 1.46 1.43 1.39 1.39 1.44 1.43 1.41
0.91 0.94 0.96 0.97 0.99 1.00 1.01 1.02 1.06 1.10 1.13 1.14 1.18 1.22 1.24 1.25 1.24 1.24 1.25 1.28 1.34 1.38 1.39 1.38 1.36 1.36 1.36 1.38 1.42 1.46 1.49 1.46 1.45 1.43 1.39 1.41 1.42 1.43 1.39 1.40 1.41 1.38
0.87 0.91 0.93 0.98 0.99 1.01 1.00 1.02 1.07 1.11 1.14 1.17 1.19 1.18 1.22 1.23 1.23 1.23 1.25 1.27 1.30 1.35 1.37 1.36 1.36 1.40 1.43 1.43 1.42 1.42 1.48 1.51 1.46 1.39 1.32 1.34 1.40 1.40 1.43 1.41 1.39 1.35
0.89 0.93 0.96 0.98 0.98 1.01 1.00 1.02 1.06 1.10 1.15 1.17 1.16 1.19 1.23 1.21 1.21 1.23 1.25 1.26 1.27 1.30 1.33 1.35 1.36 1.37 1.43 1.45 1.41 1.41 1.45 1.48 1.44 1.38 1.34 1.35 1.41 1.39 1.41 1.44 1.42 1.36
0.91 0.94 0.97 0.98 0.99 1.02 1.03 1.06 1.08 1.10 1.15 1.15 1.16 1.18 1.21 1.23 1.22 1.25 1.26 1.26 1.27 1.29 1.30 1.32 1.36 1.38 1.43 1.46 1.46 1.43 1.45 1.47 1.42 1.38 1.36 1.37 1.39 1.39 1.42 1.47 1.43 1.40
0.89 0.93 0.96 0.99 0.99 1.03 1.05 1.09 1.11 1.12 1.17 1.19 1.21 1.22 1.23 1.26 1.28 1.29 1.31 1.30 1.30 1.30 1.31 1.34 1.37 1.41 1.46 1.49 1.50 1.49 1.47 1.47 1.46 1.42 1.42 1.42 1.40 1.39 1.42 1.45 1.41 1.36
0.86 0.91 0.94 0.99 1.03 1.06 1.08 1.11 1.13 1.15 1.20 1.21 1.22 1.23 1.27 1.28 1.28 1.32 1.32 1.32 1.30 1.33 1.36 1.39 1.42 1.46 1.48 1.51 1.55 1.57 1.54 1.51 1.50 1.50 1.52 1.52 1.49 1.47 1.45 1.43 1.42 1.39
0.85 0.90 0.94 0.99 1.03 1.05 1.07 1.10 1.14 1.17 1.20 1.23 1.24 1.21 1.24 1.27 1.26 1.28 1.30 1.30 1.34 1.36 1.39 1.43 1.47 1.50 1.52 1.55 1.58 1.60 1.58 1.55 1.53 1.55 1.58 1.58 1.55 1.51 1.49 1.46 1.42 1.43
0.84 0.89 0.95 1.00 1.03 1.05 1.07 1.09 1.10 1.15 1.20 1.23 1.27 1.26 1.26 1.26 1.28 1.29 1.32 1.35 1.37 1.39 1.40 1.45 1.50 1.54 1.57 1.60 1.61 1.62 1.59 1.57 1.56 1.57 1.56 1.55 1.55 1.54 1.53 1.50 1.48 1.47
0.83 0.91 0.97 1.01 1.04 1.07 1.07 1.06 1.06 1.10 1.16 1.23 1.29 1.28 1.29 1.29 1.30 1.32 1.35 1.38 1.39 1.41 1.44 1.52 1.56 1.59 1.63 1.63 1.63 1.65 1.63 1.62 1.61 1.60 1.57 1.53 1.50 1.48 1.46 1.44 1.44 1.44
0.82 0.89 0.97 1.01 1.03 1.04 1.03 1.02 1.03 1.07 1.13 1.19 1.25 1.29 1.33 1.32 1.34 1.34 1.34 1.36 1.41 1.43 1.45 1.51 1.60 1.64 1.60 1.57 1.56 1.60 1.64 1.60 1.58 1.59 1.59 1.57 1.57 1.57 1.56 1.55 1.54 1.53
0.80 0.84 0.90 0.95 0.97 0.97 0.97 1.00 1.03 1.08 1.13 1.17 1.20 1.26 1.31 1.35 1.36 1.36 1.35 1.38 1.40 1.43 1.45 1.46 1.47 1.51 1.53 1.55 1.57 1.59 1.60 1.63 1.66 1.63 1.61 1.60 1.59 1.57 1.57 1.60 1.61 1.61
0.79 0.80 0.86 0.88 0.91 0.92 0.93 0.97 1.02 1.07 1.12 1.16 1.19 1.20 1.27 1.31 1.36 1.33 1.31 1.36 1.41 1.44 1.44 1.43 1.44 1.46 1.47 1.49 1.52 1.54 1.57 1.57 1.56 1.56 1.58 1.59 1.61 1.62 1.58 1.57 1.61 1.66
0.80 0.80 0.81 0.85 0.89 0.88 0.90 0.94 0.99 1.05 1.09 1.14 1.18 1.18 1.23 1.31 1.32 1.30 1.30 1.35 1.41 1.45 1.45 1.43 1.41 1.44 1.45 1.46 1.49 1.51 1.53 1.54 1.56 1.54 1.54 1.57 1.59 1.59 1.61 1.64 1.64 1.66
0.83 0.79 0.77 0.80 0.85 0.88 0.92 0.94 0.95 0.98 1.02 1.05 1.08 1.14 1.20 1.22 1.26 1.27 1.27 1.34 1.40 1.42 1.40 1.41 1.41 1.42 1.42 1.44 1.49 1.53 1.54 1.56 1.56 1.56 1.54 1.55 1.58 1.60 1.64 1.69 1.68 1.67
0.84 0.78 0.74 0.77 0.82 0.88 0.93 0.94 0.94 0.94 0.98 1.01 1.03 1.08 1.10 1.14 1.20 1.23 1.26 1.31 1.38 1.41 1.42 1.41 1.43 1.41 1.39 1.42 1.46 1.49 1.53 1.57 1.60 1.60 1.60 1.62 1.64 1.67 1.70 1.70 1.68 1.66
0.81 0.75 0.72 0.74 0.79 0.85 0.91 0.93 0.93 0.93 0.95 0.95 0.96 0.97 1.01 1.04 1.10 1.16 1.21 1.30 1.36 1.39 1.41 1.38 1.41 1.38 1.38 1.39 1.42 1.46 1.52 1.58 1.61 1.63 1.63 1.65 1.70 1.75 1.74 1.73 1.74 1.72
0.79 0.71 0.67 0.68 0.73 0.79 0.85 0.89 0.88 0.87 0.89 0.93 0.92 0.94 1.00 1.03 1.08 1.15 1.19 1.25 1.31 1.35 1.36 1.32 1.37 1.37 1.33 1.35 1.39 1.42 1.50 1.56 1.61 1.64 1.65 1.69 1.69 1.72 1.74 1.78 1.78 1.77
0.78 0.71 0.65 0.66 0.72 0.74 0.78 0.84 0.85 0.83 0.86 0.94 0.92 0.93 0.94 0.97 1.02 1.08 1.15 1.20 1.25 1.30 1.31 1.29 1.31 1.37 1.33 1.33 1.36 1.40 1.48 1.54 1.59 1.65 1.67 1.64 1.64 1.65 1.70 1.75 1.78 1.80
0.82 0.76 0.70 0.70 0.74 0.72 0.75 0.82 0.85 0.86 0.87 0.93 0.93 0.93 0.92 0.96 1.01 1.04 1.09 1.15 1.19 1.23 1.29 1.27 1.27 1.36 1.35 1.33 1.37 1.39 1.45 1.49 1.49 1.59 1.56 1.59 1.58 1.62 1.68 1.71 1.75 1.76
0.86 0.82 0.78 0.74 0.74 0.76 0.79 0.82 0.84 0.85 0.87 0.90 0.92 0.96 0.96 0.97 0.99 0.99 0.99 1.04 1.13 1.19 1.24 1.25 1.26 1.31 1.38 1.33 1.34 1.39 1.42 1.46 1.41 1.41 1.49 1.48 1.53 1.53 1.56 1.68 1.71 1.72
0.88 0.85 0.82 0.78 0.77 0.81 0.84 0.86 0.88 0.85 0.82 0.83 0.88 0.94 0.96 0.95 0.94 0.93 0.90 0.90 1.01 1.11 1.17 1.21 1.23 1.26 1.33 1.37 1.32 1.36 1.40 1.42 1.42 1.35 1.30 1.42 1.49 1.49 1.46 1.53 1.58 1.64
Wind_Speed
28 27 27 27 27 26 26 25 25 25 25 24 25 25 25 25 25 26 27 28 29 30 30 31 32 33 33 34 34 35 35 35 35 35 35 35 35 36 37 38 38 37
28 27 27 26 26 26 26 25 25 25 25 25 25 25 26 26 26 27 28 29 30 31 31 32 33 34 34 35 35 36 36 36 35 35 35 35 35 35 36 36 37 37
27 27 27 26 26 26 26 25 25 24 24 25 25 25 26 26 27 27 28 29 31 32 33 33 34 35 35 36 36 36 37 36 36 35 35 35 35 35 35 35 36 36
27 27 27 27 26 26 26 26 25 25 25 25 25 25 26 26 27 28 28 29 31 32 33 34 34 35 36 36 36 37 37 37 36 36 36 36 36 36 36 35 36 36
27 27 27 27 26 26 26 26 26 25 25 25 25 25 26 26 27 27 28 28 29 31 32 33 34 34 35 35 36 36 37 38 37 37 37 37 36 36 36 36 36 36
27 27 27 27 26 26 26 25 25 25 25 25 25 25 25 26 26 27 27 27 28 29 30 31 32 33 34 34 35 36 36 37 38 38 38 38 37 37 36 36 37 37
28 28 27 27 26 25 25 25 24 24 24 24 24 25 25 25 26 26 27 27 28 28 29 30 31 32 33 33 34 35 36 37 37 38 39 38 37 38 37 37 37 38
28 28 27 26 26 25 25 24 24 24 24 24 25 25 25 25 25 25 26 26 27 27 28 29 30 31 32 32 33 34 35 36 37 38 38 38 37 38 38 38 38 38
28 27 27 26 26 25 25 24 24 24 24 25 25 25 25 25 25 24 24 25 26 26 27 28 29 29 30 31 32 33 34 34 35 36 37 37 37 38 38 38 38 38
27 27 26 26 25 24 24 23 23 24 24 24 24 24 24 24 24 24 24 24 25 25 25 26 27 28 28 29 30 31 32 32 32 33 34 35 36 37 38 38 38 38
27 26 25 25 24 23 23 23 23 24 24 23 23 23 23 22 22 22 22 23 23 24 24 25 25 26 26 27 27 28 29 30 30 31 32 32 33 35 36 37 38 38
26 25 24 23 23 22 22 23 23 23 23 23 22 22 22 21 21 21 21 21 22 22 23 23 23 24 24 24 24 25 26 27 28 29 30 30 31 33 34 35 37 38
26 24 23 23 23 22 22 23 23 23 23 22 22 21 20 20 20 20 20 20 21 21 22 22 21 22 22 22 22 23 24 25 27 28 29 29 30 31 33 34 36 37
25 24 23 22 22 22 22 22 22 22 22 22 21 19 19 19 19 19 18 18 19 20 20 20 19 19 19 19 19 20 21 23 25 27 28 29 30 31 33 34 35 37
24 23 22 22 22 22 22 22 22 21 21 21 20 19 18 18 18 17 17 17 18 18 18 17 16 16 16 17 18 18 19 20 23 25 27 29 30 31 32 34 35 37
24 23 22 22 21 21 21 21 21 21 21 20 19 18 18 17 17 17 17 18 18 17 16 16 15 15 16 17 18 19 20 20 22 24 26 28 29 31 31 33 34 36
23 22 22 21 21 21 21 21 21 21 21 20 19 18 17 17 17 18 18 18 17 16 16 16 16 16 16 16 17 19 21 21 22 23 25 26 28 29 31 32 33 34
23 22 22 21 20 20 20 21 21 21 21 20 18 18 17 17 17 18 18 18 17 16 16 16 16 17 17 17 17 18 20 21 22 23 24 25 26 27 28 30 31 32
22 22 21 20 20 20 20 20 21 21 21 20 18 18 18 17 17 17 17 17 17 16 16 17 17 17 17 17 17 18 19 20 21 22 23 24 24 25 26 26 28 29
22 21 20 20 21 20 20 20 20 21 20 19 18 18 18 18 17 16 16 16 16 16 16 16 17 17 17 17 18 18 18 18 19 20 21 21 23 23 24 24 26 27
22 21 21 21 21 21 20 20 20 20 20 19 18 18 18 18 17 16 15 15 15 16 16 16 17 17 17 17 17 17 18 17 17 17 18 19 20 20 21 22 23 25
22 22 22 22 22 21 20 19 19 20 19 19 18 18 18 18 17 15 15 15 15 16 16 16 17 17 17 16 15 16 15 14 14 15 14 14 16 17 18 18 19 21
22 22 23 23 22 21 20 19 19 19 19 18 18 18 18 18 17 15 14 15 15 15 15 16 16 17 17 16 14 14 13 13 13 12 10 10 11 13 14 15 15 15
22 22 22 23 22 21 20 19 18 18 18 18 18 18 17 17 17 16 15 14 14 14 14 15 16 16 17 16 14 13 11 11 12 10 7 7 8 8 9 10 10 10
22 22 22 22 21 21 20 18 18 18 18 18 17 17 17 17 17 16 16 15 14 14 13 14 15 15 16 15 14 12 9 8 10 11 7 5 6 5 3 3 5 6
21 21 21 20 20 20 19 18 17 17 17 17 17 16 16 17 17 16 16 15 14 13 12 12 13 14 14 14 13 12 9 7 7 9 8 7 5 3 1 1 1 1
Wind_Direction
314 311 310 308 307 306 304 301 299 297 294 291 288 285 282 279 274 270 267 264 262 261 260 261 261 262 261 261 260 259 257 256 255 254 253 252 251 250 250 248 247 248
314 312 311 309 308 306 305 302 299 297 295 293 290 286 283 281 277 273 270 267 265 263 263 263 263 263 263 262 261 259 257 256 255 254 253 252 251 250 249 248 247 247
315 314 312 310 309 306 304 302 300 298 296 294 291 288 285 282 279 276 273 270 268 266 265 265 264 264 263 262 260 258 257 255 254 253 252 252 252 251 249 248 247 246
317 316 314 312 310 307 305 303 301 299 296 294 292 289 286 284 282 279 275 272 270 268 267 267 266 265 264 262 260 258 256 255 254 253 252 252 252 250 249 248 246 245
319 317 316 314 311 309 307 306 303 300 297 294 292 290 288 286 284 282 279 276 273 271 269 268 267 266 264 262 260 257 256 255 253 251 251 252 251 250 249 248 246 245
320 319 317 315 313 311 309 308 306 303 300 297 294 292 290 288 286 284 282 280 278 275 272 270 268 267 265 263 260 258 256 254 253 251 250 250 250 249 247 247 245 244
321 319 318 316 313 311 310 309 308 306 304 302 299 296 293 290 288 286 284 282 280 278 276 273 270 268 266 264 261 258 256 255 252 251 250 249 249 248 246 246 245 244
321 320 319 316 314 312 311 310 309 307 306 304 301 299 296 292 289 288 286 284 282 280 278 275 272 270 268 266 262 259 257 256 253 250 249 249 248 246 245 244 244 244
321 321 319 317 315 313 312 311 309 308 307 304 302 300 297 294 291 289 287 286 284 283 281 278 274 271 269 267 264 260 257 255 253 250 248 248 247 246 244 243 243 243
322 321 320 319 318 316 314 313 312 311 309 307 305 303 300 297 294 290 288 288 288 287 285 282 277 273 270 268 266 261 257 254 252 250 248 247 246 245 244 242 242 242
322 322 322 322 321 319 318 316 316 315 314 311 309 307 305 301 297 293 291 291 292 291 290 286 280 275 272 269 266 262 257 254 251 249 248 247 245 244 243 242 242 243
323 322 322 323 323 322 321 320 319 318 316 314 312 311 310 306 301 297 294 293 294 295 293 288 282 277 273 269 266 263 258 254 251 249 248 247 245 244 244 243 243 243
322 321 322 322 322 323 323 322 321 320 318 316 314 313 313 312 308 302 297 295 296 298 297 291 284 278 274 269 267 264 260 254 251 249 248 247 247 246 245 245 244 244
322 321 321 321 321 322 323 324 323 322 321 318 316 314 315 314 312 307 302 301 301 301 300 297 290 281 276 271 267 266 263 257 253 251 250 250 249 249 248 247 247 246
321 321 321 321 320 321 323 324 324 323 322 321 318 317 316 314 313 311 308 308 307 304 303 303 299 290 282 275 269 266 267 264 258 254 254 253 252 251 250 249 249 248
320 320 320 320 319 320 322 324 325 325 324 322 320 320 319 317 316 314 312 311 310 306 305 306 304 300 293 283 273 268 268 268 263 259 258 256 254 252 252 252 252 250
319 319 319 319 319 320 321 323 324 325 324 322 320 320 320 320 318 315 314 314 313 310 310 309 306 305 302 293 283 275 271 269 267 264 262 260 256 254 254 254 253 251
319 318 318 318 319 320 321 322 323 325 325 323 320 319 318 317 317 315 315 317 317 315 314 313 310 307 306 301 294 286 278 272 270 269 267 264 259 257 257 257 254 251
318 318 317 317 318 320 321 322 322 324 325 323 320 319 318 316 315 315 315 317 319 320 318 317 314 310 308 306 302 296 289 280 274 271 269 265 261 260 261 258 255 253
316 316 316 316 317 318 320 321 321 322 323 323 320 319 318 318 316 315 316 317 319 322 323 323 320 315 312 310 307 304 299 291 281 275 270 264 261 261 261 259 256 255
313 313 314 315 315 315 317 319 320 320 321 322 321 319 319 320 318 315 316 316 318 322 325 327 327 324 319 315 311 309 307 300 291 283 274 266 262 263 264 261 257 255
311 311 311 313 313 312 313 315 317 318 319 320 322 321 320 321 320 317 315 314 317 321 324 327 328 328 328 322 316 316 315 309 301 293 282 272 267 267 267 264 260 256
310 309 310 311 312 311 311 312 314 315 317 319 321 321 321 323 323 320 317 315 317 320 323 326 327 329 332 329 323 321 323 325 321 307 290 284 280 274 270 265 261 255
308 309 309 309 309 309 309 310 311 313 315 317 320 320 319 321 323 323 320 317 318 318 321 326 329 329 332 334 330 326 329 344 350 339 310 297 294 287 276 264 256 251
307 307 308 308 307 307 308 308 309 311 313 315 318 319 317 318 321 322 320 318 318 319 321 327 332 333 334 336 338 335 332 345 360 2 356 334 314 307 295 256 246 250
306 307 307 308 308 308 307 307 307 309 312 314 316 317 316 316 318 320 320 318 318 318 320 325 333 337 338 338 341 344 342 335 343 0 11 6 354 351 30 97 117 199